Weather in Chernivtsi

Ukraine / Vinnytsia Region     48°32′33″N   28°06′26″E
temp.,
°C
wind,
m/s
gust,
m/s
humid.,
%
clouds,
%
prec.,
mm/h
press.,
hPa
HPBL,
m
4 march, thu
thu423:00+2ssw33850 0.0 102545
02:00+2ssw33890 0.0 102354
05:00+1ssw339012 0.0 102055
08:00+2sw248711 0.0 1018108
11:00+7wsw346593 0.0 1016274
14:00+11w684758 0.0 10131176
17:00+10wsw485644 0.0 1012245
20:00+7w346639 0.0 101265
5 march, fri
fri523:00+5w237655 0.0 101235
02:00+5nw248369 0.1 1012108
05:00+4ssw2392100 0.4 101068
08:00+5sw3887100 0.6 1010218
11:00+6wnw4786100 0.1 1010441
14:00+3nnw6995100 0.4 1012565
17:00+2nnw6982100 0.1 1015743
20:00+1nnw4973100 0.1 1019685
6 march, sat
sat623:000nnw5107295 0.0 1021515
02:00−1nnw496583 0.0 1023554
05:00−1nnw596481 0.0 1024704
08:00−2n684956 0.0 10261042
11:00+1nnw68320 0.0 10271834
14:00+2nw793417 0.0 10262469
17:00+1nw6943100 0.0 10271889
20:00−1wnw385961 0.0 1029247
7 march, sun
sun723:00−2wnw37630 0.0 1030232
02:00−2w37620 0.0 1029278
05:00−2wsw37630 0.0 1027277
08:00−1wsw59540 0.0 1026507
11:00+3wsw69380 0.0 10231233
14:00+5w710370 0.0 10201456
17:00+3w510480 0.0 1018567
20:00+1w4126117 0.0 1018302
8 march, mon
mon823:000wnw4116622 0.0 1018291
02:00−1w4127120 0.0 1017536
05:00−1w4107032 0.0 1016460
08:000wnw5106765 0.0 1017932
11:00+2wnw71063100 0.0 10171291
14:00+3wnw6863100 0.1 10171238
17:00+2nw5864100 0.1 10181158
20:00−1nnw496467 0.1 1020344